Temp_Advection
nan nan nan nan nan nan nan nan nan nan nan nan nan nan nan nan nan nan nan nan nan nan nan nan nan nan nan nan nan nan nan nan nan nan nan nan nan nan nan nan nan nan nan nan nan
nan -0 -0 -0 -0 -0 0 -0 -0 -0 0 0 0 0 -0 -0 0 0 -0 -0 0 0 -0 -0 -0 -0 -0 -0 -0 -0 0 -0 -0 -0 -0 -0 0 0 0 -0 -0 -1 -1 -0 nan
nan -0 -0 0 -0 -0 -0 0 0 -0 -0 0 0 0 0 -0 0 0 0 0 -0 -0 -0 -0 -0 -0 -0 -0 -0 -0 -0 -0 -0 -0 0 0 -0 0 -0 -0 -0 -0 -1 -1 nan
nan -0 -0 -0 -0 -0 -0 -0 -0 0 -0 0 0 -0 -0 -0 -0 -0 0 0 0 -0 -0 -0 -0 -0 -0 -0 -0 -0 -0 -0 -0 0 0 0 -0 -0 0 0 0 0 0 -0 nan
nan -0 -0 -0 -0 -0 -0 -0 -0 -0 -0 0 0 -0 -0 -0 -0 -0 -0 0 0 -0 -0 -0 -0 -0 -0 -0 -0 0 0 0 0 0 0 -0 0 -0 0 0 0 0 0 -0 nan
nan -0 -0 -0 -0 -0 -0 -0 -0 -0 -0 0 0 0 0 -0 -0 -0 -0 -0 -0 -0 -0 -0 -0 -0 -0 -0 -0 -0 -0 -0 -0 -0 0 -0 0 0 -0 0 0 0 -0 -0 nan
nan -0 -0 -0 -0 -0 -0 -0 -0 -0 -0 -0 -0 0 0 0 -0 -0 -0 -0 -0 -0 -0 -0 -0 -0 -0 -0 -0 -0 -0 -0 -0 0 0 -0 0 -0 -0 0 0 -0 -0 -0 nan
nan -0 -0 -0 -0 -0 -0 -1 -0 -0 -0 -0 -0 -0 -0 0 0 -0 -0 -0 -0 0 0 0 0 -0 -0 -0 -0 -0 -0 -0 -0 -0 0 -0 0 -0 -0 -0 -0 -0 0 -0 nan
nan -0 -0 -0 -0 -0 -0 -0 -0 -0 0 0 0 -0 -0 0 0 -0 -0 -0 -0 -0 0 0 0 -0 -0 -0 -0 0 -0 0 -0 0 -0 0 0 -0 -0 -0 -0 -0 0 -0 nan
nan -0 0 0 0 0 0 -0 -0 -0 0 0 0 -0 0 0 0 -0 -0 0 -0 -0 -0 0 -0 -0 -0 0 -0 0 0 0 -0 -0 0 0 0 -0 0 -0 -0 0 -0 -0 nan
nan -0 -0 -0 -0 -0 -0 -0 -0 -0 -0 -0 0 0 -0 -0 -0 -0 -0 0 -0 -0 0 -0 -0 0 -0 -0 0 0 0 0 -0 -0 0 0 0 -0 0 -0 0 0 -0 -0 nan
nan -0 0 0 -0 -0 -0 -0 -0 0 -0 -0 0 0 -0 -0 -0 -0 -0 -0 0 0 -0 0 0 -0 -0 -0 -0 0 0 0 -0 -0 0 0 0 -0 -0 0 0 1 1 0 nan
nan 0 0 0 -0 -0 -0 0 0 0 0 -0 -0 -0 -0 -0 -0 -0 -0 0 -0 0 0 0 -0 0 -0 -0 -0 0 0 0 0 -0 0 0 0 -0 -0 -0 -0 0 0 0 nan
nan -0 -0 0 -0 -0 0 0 0 0 0 -0 0 -0 -0 -0 -0 -0 -0 -0 0 0 0 0 -0 0 0 0 -0 0 0 0 0 0 -0 -0 0 0 -0 -1 -1 -0 -0 -0 nan
nan 0 0 0 0 -0 0 0 0 -0 0 -0 -0 -0 -0 -0 0 0 0 -0 0 0 0 -0 0 -0 0 0 -0 0 0 -0 0 -0 -0 -0 -0 -0 -0 -0 -1 -1 -0 0 nan
nan -0 1 1 0 -0 0 0 0 0 -0 -0 -0 -0 0 -0 0 -0 -0 -0 0 0 -0 -0 -0 -0 0 -0 0 -0 0 -0 -0 -0 -0 0 0 0 -0 -0 -1 -1 -1 -0 nan
nan 0 1 0 0 0 0 0 0 -0 -0 0 -0 -0 0 0 -0 -0 -0 -0 0 -0 0 -0 0 -0 -0 -0 -0 -0 -0 -0 0 -0 -0 -0 0 1 0 0 0 -1 -1 -1 nan
nan -0 0 0 0 0 0 0 -0 0 0 -0 -0 -0 0 -0 -0 0 -0 0 -0 -0 0 0 0 -0 -0 -0 0 -0 -0 0 0 0 -0 0 -0 -0 -0 0 1 1 -0 -1 nan
nan -0 0 0 0 0 0 -0 0 0 -0 -0 -0 0 0 0 0 -0 0 0 -0 0 0 0 0 -0 -0 -0 -0 0 -0 -0 -0 -0 -0 -0 -0 -0 -0 -0 -1 -1 -1 -1 nan
nan -0 0 0 0 0 0 -0 0 -0 0 -0 -0 0 0 0 -0 0 0 -0 -0 -0 0 0 -0 -0 -0 0 -0 -0 -0 -0 0 0 -0 0 -0 0 -1 -1 -1 -1 -0 -0 nan
nan 0 0 0 0 0 -0 0 0 0 0 -0 0 0 0 0 0 0 0 0 0 -0 -0 0 0 -0 -0 -0 -0 -0 -0 -0 -0 -0 0 -0 0 1 1 -0 -0 -1 1 1 nan
nan 0 0 0 -0 0 0 0 -0 -0 0 0 -0 -0 0 0 0 -0 0 -0 0 -0 0 -0 0 0 -0 -0 0 0 -0 -0 -0 1 -0 0 -0 0 -0 -0 0 1 0 0 nan
nan 0 0 1 0 0 0 0 -0 0 -0 0 0 0 0 0 -0 0 0 -0 0 -0 -0 -0 -0 0 0 0 -0 0 -0 -0 -0 -0 -0 0 -0 0 0 0 0 1 0 0 nan
nan -0 -0 0 0 0 -0 -0 0 -0 0 0 0 -0 0 0 0 0 0 0 0 -0 0 -0 -0 0 0 0 -0 0 0 0 -0 -0 -0 -1 -1 -0 0 -0 -1 0 0 0 nan
nan 0 -0 0 -0 0 0 0 -0 0 0 0 0 -0 0 -0 0 0 0 0 -0 0 -0 0 -0 0 -0 -0 -0 0 -0 -0 0 -0 -0 0 -0 -1 1 -0 -0 -0 -0 -0 nan
nan -0 -0 -0 0 -0 -0 -0 0 0 -0 -0 0 0 0 -0 -0 0 -0 0 0 -0 -0 -0 0 -0 -0 0 -0 -0 0 -0 -0 0 1 -0 -0 -0 -0 0 0 0 -0 -0 nan
nan nan nan nan nan nan nan nan nan nan nan nan nan nan nan nan nan nan nan nan nan nan nan nan nan nan nan nan nan nan nan nan nan nan nan nan nan nan nan nan nan nan nan nan nan
Wind_Speed
15 15 16 16 16 17 18 17 16 15 14 14 13 13 12 12 7 9 9 10 10 10 9 8 4 4 6 6 6 3 4 2 5 6 3 5 3 2 1 0 4 5 22 31 36
16 15 15 16 16 16 17 18 18 17 15 14 14 12 11 12 11 6 13 9 7 9 10 7 3 3 4 4 4 4 3 7 5 5 3 4 4 4 1 4 3 20 28 31 34
16 16 16 16 17 17 17 17 19 18 16 14 14 11 11 12 11 1 13 10 8 7 9 7 3 2 4 3 3 2 2 4 4 6 5 3 5 4 4 1 8 19 29 34 36
16 16 17 16 16 17 17 18 18 18 16 13 14 12 10 8 2 5 14 9 6 6 9 4 2 2 3 2 2 2 3 4 1 6 4 3 8 4 4 0 15 21 27 33 34
18 18 18 18 17 17 17 18 18 16 16 15 12 12 11 5 4 7 13 7 4 6 6 4 5 2 3 1 1 2 1 3 4 6 4 10 4 3 7 8 21 28 31 34 35
19 19 19 19 17 16 17 18 18 16 14 14 13 10 9 3 4 6 12 5 3 3 7 9 4 3 4 2 1 2 1 5 3 3 7 4 2 5 7 11 24 32 34 35 36
18 19 18 18 18 18 18 17 17 16 16 12 11 10 8 8 7 9 10 6 2 1 3 5 5 3 3 1 4 2 3 4 3 1 3 3 3 5 3 15 24 32 33 34 40
19 19 18 18 17 18 20 20 19 18 15 10 8 8 3 7 7 7 8 6 4 3 2 2 4 3 3 2 4 3 3 3 2 2 2 5 5 3 3 13 25 30 33 34 38
20 20 18 18 19 18 20 20 19 18 15 11 8 6 4 3 3 5 8 9 6 2 3 5 3 2 3 3 2 5 2 1 6 3 3 5 4 2 4 13 20 28 33 36 39
22 21 19 16 20 20 20 21 18 14 11 8 9 6 4 1 5 16 13 8 3 2 4 2 2 2 2 4 3 2 3 3 5 2 2 4 9 3 1 14 20 27 33 37 43
23 23 20 17 17 19 21 21 10 5 6 7 4 3 2 6 9 6 9 6 5 4 4 1 1 3 2 3 0 1 3 5 4 4 4 5 5 6 6 16 18 26 32 37 44
24 25 22 18 16 17 18 14 11 9 9 9 11 6 6 4 2 3 6 2 3 3 3 0 4 2 2 3 1 2 3 5 4 4 2 4 7 3 3 7 14 27 31 38 40
22 27 21 19 16 17 13 13 12 8 3 3 3 2 2 2 1 4 6 1 2 1 2 4 1 0 2 2 3 2 4 2 4 6 3 5 5 3 5 4 14 28 34 43 43
25 25 26 21 16 12 9 11 9 8 2 2 1 2 2 2 1 4 5 1 2 2 2 1 1 1 1 1 2 2 1 2 7 1 1 4 5 3 6 10 18 32 37 41 45
27 26 33 21 7 7 11 10 5 2 5 1 1 1 2 3 2 2 5 1 2 2 2 0 2 2 1 1 2 3 3 3 2 2 4 3 2 5 5 11 18 23 33 41 43
18 29 28 24 7 11 10 2 2 3 6 1 2 1 1 4 3 4 2 2 2 2 2 1 1 1 2 3 2 3 1 3 3 2 3 4 4 4 1 6 12 24 35 43 46
6 16 19 10 9 8 3 4 1 3 2 0 1 1 1 2 1 2 4 4 0 2 1 2 0 2 3 2 1 7 4 3 5 4 5 3 2 7 3 4 4 15 32 42 42
11 10 11 8 10 8 10 3 4 3 3 2 1 2 2 2 2 1 1 2 1 1 2 2 2 4 5 2 1 3 3 4 4 2 5 3 4 5 4 7 16 22 28 34 41
9 10 7 9 3 4 3 1 4 4 2 5 1 0 1 1 1 4 1 1 1 1 3 3 1 1 4 2 2 0 4 3 6 2 2 2 5 7 1 6 18 23 32 40 45
6 4 3 3 6 14 1 4 4 2 3 1 4 2 2 3 2 2 2 1 2 1 1 2 1 1 2 1 7 4 5 4 3 3 5 3 4 4 8 11 14 17 27 38 43
4 3 3 4 10 5 3 5 3 3 4 2 3 4 5 3 3 4 3 1 2 2 2 3 2 1 0 4 0 2 3 4 4 3 3 2 5 5 5 3 9 16 29 35 40
3 1 4 10 3 2 2 2 0 3 2 2 2 3 5 5 3 2 4 0 4 3 3 2 3 1 1 1 1 1 2 2 4 5 2 3 5 1 5 3 8 21 27 31 34
3 3 9 16 2 2 1 2 3 3 3 4 4 3 3 5 3 3 2 1 3 2 3 3 1 2 2 2 3 2 3 4 4 3 4 4 5 2 3 9 14 20 26 31 33
3 1 2 10 2 1 2 3 3 3 2 3 1 4 2 2 2 1 3 1 1 2 3 1 2 4 4 3 3 2 1 3 3 3 3 6 8 7 6 5 15 20 24 28 32
6 3 5 3 4 4 4 4 4 3 4 8 3 5 5 4 2 4 1 1 1 2 2 2 2 1 1 1 2 3 4 5 4 4 5 4 5 9 7 3 9 14 23 27 33
5 4 5 3 2 5 6 6 8 4 7 5 6 9 6 5 5 6 6 4 4 3 2 2 1 2 2 2 1 4 5 6 2 2 8 1 8 7 3 4 7 12 20 25 28
18 11 3 5 2 3 4 5 6 8 9 2 7 5 7 4 6 2 5 7 5 6 3 3 4 2 3 2 4 6 7 10 4 4 6 4 7 2 2 5 5 11 16 21 23
Wind_Direction
345 344 344 344 346 346 345 346 343 340 332 331 329 333 329 341 339 329 347 340 334 337 346 340 353 14 33 46 44 65 66 141 187 158 218 185 183 178 106 34 338 319 307 310 314
346 345 343 341 343 345 345 341 339 337 333 328 326 327 322 326 329 318 337 337 329 333 344 354 345 53 62 43 31 67 100 199 183 176 193 202 189 164 149 5 333 320 325 327 323
344 342 341 341 341 341 342 340 338 333 332 328 327 320 316 322 325 333 348 338 330 330 338 344 349 78 78 37 28 104 156 184 211 214 221 187 149 146 125 16 339 317 323 332 330
341 340 338 339 339 341 341 339 338 335 330 328 328 319 319 322 332 315 342 334 327 331 337 356 123 55 78 51 44 103 161 170 216 210 193 202 148 120 140 342 339 330 331 332 333
336 337 336 335 338 340 339 339 337 336 333 327 326 318 316 313 284 320 335 334 335 341 29 55 69 80 89 359 19 134 201 221 273 248 242 154 147 197 196 336 343 344 341 337 332
327 331 334 335 336 339 341 340 335 333 332 328 319 317 312 296 279 324 355 337 338 2 54 58 47 66 90 61 49 335 281 287 291 308 189 156 165 167 212 326 338 344 342 339 333
316 323 328 331 333 333 332 333 332 327 323 328 319 312 297 283 287 312 345 329 320 356 40 45 22 52 17 72 344 23 337 351 13 210 156 149 246 227 304 333 330 338 335 336 341
309 316 315 319 324 326 326 325 323 316 307 310 304 300 251 270 281 302 338 339 308 283 293 327 347 63 42 339 23 48 56 11 297 172 165 103 273 241 314 328 330 332 334 333 335
301 306 312 312 316 321 324 321 317 306 293 291 287 269 269 249 267 327 347 357 339 293 294 290 311 62 50 54 3 14 273 280 313 181 136 194 254 255 339 338 331 332 334 332 334
288 294 302 306 311 318 321 327 316 302 288 285 259 272 249 266 289 304 303 287 304 301 274 274 345 61 60 59 270 312 320 270 253 291 282 236 265 219 280 352 333 335 335 334 341
279 287 293 298 306 311 320 335 333 295 285 260 280 267 315 329 325 343 315 294 251 216 218 354 310 254 184 159 259 277 242 259 260 279 305 239 262 243 295 346 333 341 337 339 340
279 282 279 287 300 306 321 322 307 296 304 291 276 268 298 322 335 337 328 280 202 223 95 320 236 166 111 179 40 240 266 263 278 263 320 289 266 265 292 306 326 339 339 338 337
270 278 277 278 288 297 316 314 307 311 293 314 327 329 355 18 127 317 333 208 55 182 214 221 58 181 161 192 347 232 215 235 248 310 241 319 305 335 296 281 334 349 348 347 343
276 274 275 263 266 275 302 306 311 326 15 173 334 7 12 87 95 7 356 357 70 229 182 250 16 86 187 243 135 300 165 312 288 327 272 356 296 294 312 317 357 345 345 340 345
271 267 260 243 213 285 287 292 297 340 321 59 63 13 27 79 331 11 5 337 152 161 135 118 346 341 264 150 179 222 322 260 238 132 29 337 70 260 5 339 342 341 338 338 344
272 271 252 240 256 298 276 286 261 49 256 87 92 2 284 15 45 329 11 39 101 99 56 73 73 32 303 309 205 6 139 35 55 53 13 246 114 286 341 260 332 334 340 341 345
307 292 245 226 257 278 213 143 351 191 80 240 45 31 227 327 59 55 17 12 204 73 258 4 15 339 21 336 109 45 48 334 356 13 227 260 72 252 251 276 239 312 335 341 345
316 290 218 249 281 234 160 70 216 246 231 91 34 254 252 34 46 340 147 277 104 74 117 170 300 14 356 60 289 32 136 135 247 289 280 298 248 280 206 352 345 343 341 343 351
317 296 210 222 194 183 189 178 222 249 104 147 188 59 219 169 135 351 248 217 95 174 182 128 243 93 65 41 27 296 44 173 96 215 2 273 296 315 345 354 342 346 351 349 355
299 299 271 242 173 176 134 222 227 92 109 277 196 194 241 187 159 123 254 120 167 187 135 177 49 42 111 238 45 85 150 54 7 29 314 311 282 249 332 337 331 343 343 350 359
299 275 300 185 169 183 215 223 194 163 137 228 228 198 219 178 201 205 202 199 202 154 133 129 104 252 70 18 66 36 35 59 110 109 166 302 279 222 221 272 307 325 350 356 2
220 188 221 170 119 231 225 274 346 130 183 178 288 244 190 159 197 237 215 73 168 164 178 159 144 154 160 141 257 118 146 139 116 278 116 160 278 270 210 298 313 340 353 1 7
227 149 186 177 206 213 250 239 174 159 218 175 213 210 149 170 211 230 151 64 157 154 183 185 288 17 354 30 7 227 130 112 108 86 206 136 273 223 288 339 354 348 356 2 10
264 155 144 200 229 203 183 246 231 196 204 190 168 106 92 181 91 181 184 181 179 212 142 119 121 186 198 201 126 157 165 158 122 114 181 229 297 305 333 335 341 353 359 5 10
236 225 186 193 234 204 177 171 179 226 218 190 202 216 172 154 138 208 151 154 340 227 75 120 215 148 334 88 175 208 167 182 163 180 172 240 224 278 299 272 331 350 356 11 10
236 183 178 183 251 200 199 215 220 177 162 216 229 179 180 169 189 182 142 206 195 68 102 351 127 112 330 101 330 271 213 183 155 214 265 197 281 219 282 346 337 357 5 11 10
231 242 192 176 183 149 208 226 229 155 202 162 199 138 184 175 164 89 133 99 124 149 150 132 134 99 277 353 324 300 212 182 172 222 163 176 233 285 315 8 354 351 12 7 13
Height
1524 1522 1520 1518 1516 1514 1511 1508 1506 1503 1500 1497 1497 1495 1493 1491 1489 1489 1485 1486 1483 1482 1479 1478 1475 1475 1475 1476 1477 1476 1488 1498 1492 1496 1490 1491 1491 1492 1492 1493 1494 1495 1494 1489 1483
1524 1522 1520 1518 1516 1513 1511 1509 1506 1503 1499 1497 1495 1495 1492 1490 1489 1487 1489 1484 1482 1481 1480 1477 1477 1474 1476 1478 1479 1479 1490 1488 1486 1487 1488 1489 1490 1490 1492 1493 1494 1492 1488 1484 1477
1522 1521 1519 1518 1516 1514 1510 1509 1505 1503 1499 1497 1494 1492 1491 1490 1488 1486 1487 1484 1482 1481 1478 1477 1478 1477 1476 1479 1480 1482 1486 1483 1484 1484 1486 1488 1488 1489 1490 1493 1493 1490 1484 1477 1471
1522 1519 1518 1516 1515 1513 1510 1508 1505 1502 1499 1496 1495 1492 1489 1489 1492 1487 1485 1484 1483 1481 1478 1476 1477 1478 1478 1481 1481 1482 1483 1483 1483 1483 1484 1486 1486 1487 1489 1491 1491 1487 1481 1474 1467
1523 1520 1518 1516 1514 1512 1509 1506 1504 1500 1498 1496 1493 1493 1491 1489 1488 1487 1485 1484 1483 1482 1478 1478 1478 1479 1480 1482 1482 1481 1482 1482 1482 1482 1484 1484 1485 1486 1486 1486 1486 1483 1478 1471 1462
1522 1520 1518 1516 1513 1511 1509 1506 1503 1500 1497 1495 1493 1491 1492 1492 1488 1486 1485 1484 1483 1483 1479 1478 1481 1480 1480 1482 1484 1482 1482 1482 1481 1480 1482 1484 1485 1486 1485 1483 1482 1479 1473 1466 1458
1520 1518 1517 1515 1513 1510 1508 1505 1502 1500 1497 1492 1491 1489 1488 1490 1489 1487 1485 1485 1483 1483 1482 1481 1482 1481 1481 1482 1483 1482 1482 1481 1481 1481 1483 1483 1485 1485 1483 1481 1478 1475 1471 1463 1455
1518 1516 1514 1513 1511 1509 1507 1504 1500 1497 1495 1491 1490 1488 1484 1485 1487 1487 1485 1484 1484 1483 1483 1483 1482 1480 1481 1483 1483 1485 1487 1488 1481 1481 1482 1485 1484 1482 1482 1480 1476 1472 1465 1459 1451
1515 1514 1512 1512 1509 1506 1504 1502 1499 1494 1492 1491 1489 1488 1485 1483 1485 1485 1484 1484 1484 1483 1484 1484 1482 1481 1482 1485 1486 1490 1487 1490 1486 1480 1481 1484 1482 1480 1481 1479 1474 1469 1462 1453 1443
1510 1510 1509 1508 1507 1505 1503 1500 1496 1492 1490 1489 1489 1491 1484 1483 1484 1483 1482 1482 1484 1483 1485 1485 1483 1484 1486 1486 1490 1486 1490 1492 1491 1482 1480 1481 1481 1478 1477 1476 1472 1467 1459 1449 1438
1506 1507 1506 1505 1503 1502 1500 1498 1498 1494 1490 1489 1486 1485 1482 1483 1483 1482 1482 1483 1483 1484 1484 1484 1486 1487 1485 1487 1490 1489 1493 1494 1489 1483 1483 1479 1482 1477 1475 1473 1470 1463 1456 1446 1438
1502 1503 1503 1503 1500 1500 1499 1499 1497 1497 1490 1486 1486 1484 1482 1482 1483 1483 1483 1484 1482 1482 1483 1486 1484 1485 1485 1488 1488 1489 1491 1491 1485 1485 1483 1478 1479 1478 1475 1474 1470 1463 1455 1444 1436
1499 1499 1499 1499 1499 1498 1496 1497 1495 1492 1490 1487 1487 1485 1483 1484 1484 1484 1484 1482 1481 1482 1485 1484 1485 1483 1484 1487 1487 1486 1489 1488 1489 1486 1481 1480 1482 1483 1475 1472 1468 1461 1454 1444 1435
1493 1495 1496 1496 1498 1494 1494 1494 1493 1491 1490 1486 1488 1487 1485 1482 1486 1485 1484 1484 1482 1483 1485 1484 1485 1484 1486 1486 1487 1487 1487 1488 1490 1491 1499 1487 1501 1488 1479 1473 1465 1458 1451 1444 1435
1487 1488 1487 1488 1487 1490 1493 1492 1492 1492 1491 1487 1486 1487 1486 1484 1486 1486 1485 1483 1483 1484 1486 1482 1484 1486 1485 1486 1487 1483 1488 1489 1486 1489 1493 1496 1508 1483 1482 1477 1469 1461 1456 1446 1437
1481 1480 1482 1483 1486 1489 1488 1489 1492 1495 1497 1483 1484 1486 1487 1485 1485 1485 1485 1485 1485 1484 1484 1485 1486 1487 1487 1486 1486 1485 1486 1490 1492 1497 1523 1512 1508 1482 1495 1489 1474 1465 1457 1446 1436
1478 1479 1478 1479 1484 1486 1489 1490 1493 1484 1481 1484 1485 1486 1487 1485 1486 1488 1490 1491 1490 1488 1491 1486 1486 1488 1488 1487 1486 1487 1497 1513 1509 1531 1516 1508 1500 1484 1488 1482 1480 1471 1461 1449 1440
1478 1477 1477 1481 1483 1484 1489 1491 1489 1480 1477 1485 1485 1485 1485 1487 1487 1487 1488 1490 1493 1493 1498 1486 1480 1490 1490 1493 1493 1495 1501 1519 1505 1531 1515 1493 1508 1482 1480 1479 1477 1471 1464 1452 1442
1478 1476 1477 1480 1481 1484 1489 1492 1481 1480 1479 1482 1486 1486 1485 1487 1490 1489 1489 1492 1492 1493 1489 1494 1485 1491 1493 1493 1495 1493 1509 1508 1533 1540 1528 1502 1491 1480 1478 1479 1475 1469 1462 1451 1441
1477 1477 1479 1481 1480 1483 1488 1480 1480 1479 1482 1483 1479 1484 1483 1487 1491 1493 1488 1491 1492 1493 1493 1494 1492 1492 1493 1494 1495 1494 1503 1513 1529 1532 1525 1509 1513 1496 1485 1484 1477 1471 1466 1455 1445
1478 1479 1477 1479 1481 1484 1483 1480 1476 1480 1480 1484 1480 1482 1484 1486 1487 1489 1487 1491 1491 1493 1493 1496 1498 1496 1494 1500 1499 1500 1512 1514 1522 1538 1547 1539 1501 1492 1497 1492 1485 1476 1470 1461 1450
1477 1476 1478 1480 1484 1484 1482 1478 1478 1477 1481 1483 1484 1481 1482 1485 1490 1491 1486 1488 1490 1491 1493 1494 1497 1499 1499 1501 1501 1500 1504 1510 1521 1532 1554 1550 1506 1483 1486 1487 1483 1477 1471 1465 1457
1475 1474 1478 1479 1481 1482 1480 1479 1477 1478 1480 1482 1481 1484 1483 1486 1485 1486 1488 1491 1491 1492 1494 1493 1499 1501 1494 1501 1501 1501 1505 1516 1525 1536 1553 1543 1498 1482 1483 1485 1481 1477 1472 1466 1460
1476 1475 1477 1478 1478 1478 1478 1476 1475 1476 1478 1480 1481 1483 1485 1487 1485 1488 1489 1490 1491 1492 1492 1492 1500 1491 1486 1489 1505 1509 1511 1510 1514 1527 1546 1527 1501 1481 1482 1487 1479 1477 1474 1468 1462
1473 1470 1471 1477 1476 1475 1476 1474 1474 1475 1479 1479 1480 1479 1480 1488 1490 1488 1489 1491 1491 1491 1492 1493 1494 1500 1496 1496 1498 1499 1508 1513 1519 1512 1514 1513 1514 1488 1484 1485 1481 1479 1474 1470 1462
1469 1469 1470 1470 1470 1472 1473 1469 1467 1472 1473 1475 1474 1472 1477 1481 1477 1482 1485 1488 1486 1493 1495 1495 1494 1498 1500 1497 1498 1497 1495 1501 1511 1505 1509 1512 1500 1481 1481 1482 1481 1479 1476 1472 1468
1466 1466 1466 1466 1468 1469 1467 1463 1461 1463 1465 1465 1468 1472 1475 1477 1477 1479 1480 1481 1483 1489 1496 1497 1498 1502 1496 1501 1506 1494 1495 1495 1498 1501 1497 1498 1484 1479 1480 1481 1481 1478 1478 1474 1472